User: anonymous   Login
Location: Unspecified
(0.0000°N, 0.0000°E)
Time: 16:06:54
(UTC+00:00)
Language:

PAZ - Orbit

View from above orbital plane
View from above orbital plane
View from above satellite
View from above satellite

Ground track
Ground track

The orbit data is extracted from the following two-line orbital elements,

1 43215U 18020A   19081.50542337  .00000111  00000-0  84777-5 0  9995
2 43215  97.4464  89.7372 0001875  86.1717  31.1439 15.19151011 59659
Epoch (UTC): 22 March 2019 12:07:48
Eccentricity: 0.0001875
inclination: 97.4464°
perigee height: 507 km
apogee height: 510 km
right ascension of ascending node: 89.7372°
argument of perigee: 86.1717°
revolutions per day: 15.19151011
mean anomaly at epoch: 31.1439°
orbit number at epoch: 5965

The dashed part of the orbit path shows where the satellite is in the earth's shadow,  

DLR